Location: ??????
(37.8413°N, 23.8007°E)
Time: 20:40:46
(UTC+00:00)

Daily predictions for brighter satellites

Satellite Brightness Start Highest point End
(mag) Time Altitude Azimuth Time Altitude Azimuth Time Altitude Azimuth
Cosmos 1833 Rocket 4.1 18:09:10 10° SW 18:14:29 44° WNW 18:19:51 10° N
Genesis I 2.9 18:12:40 10° SSW 18:16:04 60° ESE 18:19:32 10° NE
MOS 1-B 4.4 18:12:42 10° SSE 18:18:25 73° ENE 18:24:11 10° N
NOSS 3-4 (A) 4.1 18:11:53 10° NNW 18:19:03 78° ENE 18:27:17 10° SE
NOSS 3-4 (C) 4.1 18:11:57 10° NNW 18:19:06 77° ENE 18:27:16 10° SE
Cosmos 1140 Rocket 3.8 18:15:54 10° SSW 18:21:06 75° WNW 18:26:18 10° NNE
BREEZE-M DEB (TANK) 2.3 18:21:22 10° SW 18:23:54 54° SE 18:29:42 10° ENE
Terra 3.9 18:22:00 10° E 18:24:03 13° ENE 18:26:08 10° NE
PSLV R/B 3.7 18:21:27 10° SSE 18:24:57 57° ENE 18:28:26 10° N
Cosmos 1805 3.5 18:21:27 10° NNW 18:25:08 68° W 18:28:48 10° S
Feng Yun 1-1 Rocket 4.5 18:22:31 10° SSE 18:28:25 85° WSW 18:34:14 10° NNW
Cosmos 1515 Rocket 4.3 18:24:47 10° SSE 18:28:36 32° E 18:32:27 10° NNE
Tiangong -0.9 18:25:44 10° WNW 18:28:45 40° N 18:31:46 10° ENE
Cosmos 1190 Rocket 4.4 18:24:43 10° S 18:29:41 43° ESE 18:34:41 10° NNE
CZ-4B R/B 3.4 18:24:26 10° S 18:29:41 72° WSW 18:35:00 10° NNW
Cosmos 1707 4.1 18:28:02 10° SE 18:30:40 19° E 18:33:18 10° NE
SL-4 R/B 4.0 18:28:14 10° W 18:31:28 29° NNW 18:34:55 10° NNE
Cosmos 1633 Rocket 3.1 18:31:07 10° N 18:35:29 65° E 18:39:48 10° SSE
Okean O Rocket 1.6 18:31:55 10° SSE 18:36:19 90° WNW 18:40:43 10° NNW
Cosmos 2026 Rocket 4.0 18:30:15 10° S 18:36:27 81° E 18:42:35 10° N
SeaSat 1 3.9 18:32:52 10° ESE 18:36:49 25° NE 18:40:46 10° N
USA 234 3.2 18:32:17 10° NE 18:38:51 83° SE 18:45:23 10° SW
SL-24 R/B 4.3 18:34:16 10° SSE 18:39:25 75° ENE 18:43:55 10° N
Cosmos 1066 Rocket 4.3 18:33:42 10° S 18:39:31 74° E 18:45:19 10° NNE
CARTOSAT-1 3.9 18:36:40 10° S 18:40:52 64° W 18:45:06 10° NNW
CZ-4 R/B 3.6 18:41:59 10° SSW 18:45:07 23° W 18:48:19 10° NW
Cosmos 1766 3.3 18:41:42 10° N 18:45:24 55° E 18:48:43 12° SSE
FALCON 9 R/B 3.9 18:42:27 10° WSW 18:45:53 22° S 18:52:03 11° SSE
Cosmos 2285 Rocket 4.2 18:40:02 10° SSW 18:46:20 80° WNW 18:52:45 10° NNE
Cosmos 1470 Rocket 3.7 18:43:08 10° N 18:47:23 53° E 18:51:10 13° SSE
DELTA 2 R/B (1) 4.4 18:42:45 10° W 18:47:55 38° SSW 18:52:18 14° SSE
IRIDIUM 104 4.5 18:43:43 10° N 18:48:51 58° E 18:53:59 10° SSE
Atlas Centaur 2 3.3 18:45:39 10° WSW 18:53:24 48° S 19:01:14 10° ESE
Cosmos 1666 Rocket 4.1 18:50:34 10° NNW 18:54:49 58° W 18:59:04 10° S
ERS-1 Rocket 3.9 18:53:16 15° SE 18:56:45 34° ENE 19:01:14 10° N
IRIDIUM 114 4.3 18:52:48 10° N 18:58:02 71° E 19:03:08 10° S
Cosmos 2082 Rocket 2.6 18:52:33 10° SSW 18:58:14 70° WNW 19:03:57 10° NNE
SL-16 R/B 3.9 18:54:19 10° N 18:58:17 19° NE 19:02:05 11° E
Cosmos 2369 3.9 18:54:35 10° NNW 19:00:17 62° ENE 19:04:36 18° SE
Resurs 01 Rocket 3.1 18:56:50 10° SSW 19:00:52 35° W 19:04:55 10° NNW
Cosmos 1763 Rocket 3.8 18:57:01 10° N 19:02:09 53° ENE 19:05:45 19° SE
BREEZE-M DEB (TANK) 3.6 19:01:48 10° WSW 19:03:59 38° NNW 19:06:35 10° NE
Cosmos 1441 Rocket 4.4 19:03:15 10° NNE 19:06:16 25° ENE 19:07:31 20° ESE
SPOT 5 2.6 19:03:33 18° SSE 19:06:44 66° ENE 19:11:02 10° N
IRIDIUM 103 4.3 19:01:56 10° N 19:07:11 88° E 19:12:17 11° S
Lacrosse 5 rocket 3.3 19:04:42 10° WNW 19:07:53 21° WSW 19:10:59 10° S
Centaur D-1AR AC-39 4.2 19:04:43 10° S 19:15:43 - ESE 19:07:30 16° SSE
Centaur D AC-29 3.5 19:04:48 10° WSW 19:10:18 44° SSE 19:39:07 10° ESE
Cosmos 1933 Rocket 3.9 19:07:24 10° N 19:11:43 49° E 19:14:13 23° SE
Cosmos 1470 2.7 19:11:04 10° N 19:14:43 57° E 19:16:30 27° SSE
IRS-1C Rocket 4.1 19:13:04 19° SSE 19:16:52 72° ENE 19:22:07 10° N
Cosmos 1908 3.4 19:18:55 10° N 19:22:23 45° E 19:23:31 33° SE
Cosmos 1674 3.7 19:20:38 10° SSW 19:23:53 40° W 19:27:11 10° N
Ariane Rocket 3.5 19:22:59 24° SE 19:25:35 44° ENE 19:30:25 10° N
Cosmos 1697 Rocket 4.5 19:21:39 10° NW 19:26:11 26° WSW 19:30:43 10° SSW
Cosmos 468 Rocket 4.1 19:24:01 10° N 19:29:12 61° ENE 19:31:49 28° SE
COSMOS 2406 4.3 19:25:49 10° SW 19:31:19 46° WNW 19:36:52 10° N
Cosmos 1842 4.4 19:29:37 10° SSW 19:33:03 39° W 19:36:30 10° N
Meteor 1-13 Rocket 4.2 19:28:16 13° S 19:33:34 82° E 19:39:19 10° N
SPOT 3 Rocket 3.9 19:31:38 28° SE 19:34:04 49° ENE 19:39:01 10° N
MetOp-B 4.4 19:31:48 18° S 19:35:49 64° WSW 19:41:09 10° NNW
Cosmos 1553 Rocket 4.1 19:32:53 10° N 19:39:03 75° W 19:43:46 19° S
S3M 4.2 19:34:56 10° N 19:41:13 59° E 19:44:25 29° SSE
Cosmos 1655 Rocket 4.3 19:38:03 27° SSE 19:41:19 49° E 19:47:26 10° NNE
ARGOS Delta rocket 4.2 19:39:22 20° S 19:42:22 54° W 19:46:43 10° NNW
Cosmos 2322 Rocket 3.5 19:38:24 10° N 19:43:10 27° ENE 19:45:40 20° E
Cosmos 1980 Rocket 3.1 19:37:54 10° NW 19:43:13 42° WSW 19:47:06 17° SSW
Okean-O 4.4 19:45:15 10° SSW 19:48:54 26° W 19:52:37 10° NW
Spot 1 4.4 19:44:38 10° NNE 19:49:05 51° E 19:50:22 39° SSE
SJ 16-02 3.0 19:52:10 19° ENE 19:52:10 19° ENE 19:54:21 10° NE
Cosmos 2266 Rocket 4.0 19:46:45 20° S 19:51:20 87° E 19:57:44 10° N
Cosmos 2278 3.8 19:46:31 10° NNW 19:52:13 66° ENE 19:54:32 36° SE
Cosmos 1741 Rocket 4.2 19:51:37 36° SSE 19:53:22 52° ESE 19:58:30 10° NNE
USA 245 3.5 19:56:51 42° SW 19:57:25 48° W 20:01:01 10° NNW
Landsat 5 3.4 19:54:24 10° NNE 19:58:22 58° ESE 19:58:50 54° SE
Landsat 4 3.3 19:59:02 72° S 19:59:20 84° WSW 20:02:48 10° NNW
Cosmos 540 Rocket 3.7 19:54:28 10° NNW 19:59:32 61° WSW 20:01:44 33° S
Terra 2.0 19:59:05 33° S 20:01:03 64° WSW 20:05:45 10° NNW
Cosmos 1400 Rocket 2.8 20:00:07 42° SSW 20:01:19 74° W 20:05:12 10° N
Cosmos 968 Rocket 3.8 20:01:07 41° SE 20:01:48 44° ESE 20:06:41 10° NNE
SL-08 ROCKET BODY 4.4 19:58:42 23° S 20:02:47 83° W 20:08:54 10° N
Okean 3 4.4 20:03:17 31° E 20:03:17 31° E 20:06:35 10° NNE
Cosmos 2237 4.2 19:58:14 10° NNW 20:03:58 73° ENE 20:05:58 41° SE
Tiangong -1.7 20:02:35 10° WNW 20:05:19 62° WNW 20:05:19 62° WNW
Cosmos 1733 Rocket 3.7 20:02:47 10° N 20:06:56 40° E 20:07:15 39° E
Cosmos 2228 Rocket 3.0 20:07:19 54° SSE 20:08:14 73° E 20:12:47 10° NNE
Cosmos 2219 Rocket 4.0 20:07:51 10° N 20:11:46 19° NE 20:14:05 15° E
Cosmos 883 Rocket 4.5 20:06:59 10° N 20:13:21 79° E 20:15:47 40° SSE
SeaSat 1 3.3 20:12:15 30° SSW 20:14:00 41° WSW 20:18:39 10° NW
ATLAS CENTAUR R/B 1.6 20:17:20 48° NE 20:17:20 48° NE 20:19:58 10° NNE
Meteor 2-10 Rocket 3.5 20:12:23 10° N 20:17:59 83° E 20:19:27 50° SSE
Meteor 1-15 Rocket 4.3 20:13:43 10° NNW 20:19:16 72° W 20:21:17 40° SSW
Meteor 1-23 Rocket 4.4 20:16:40 27° SSW 20:19:48 68° W 20:25:30 10° N
Cosmos 1953 4.2 20:23:43 10° NNE 20:25:44 18° ENE 20:25:44 18° ENE
Okean 1-7 3.9 20:28:24 36° ENE 20:28:24 36° ENE 20:31:44 10° NNE
MOS 1 Rocket 4.4 20:26:40 31° SSW 20:28:46 46° W 20:33:56 10° NNW
Cosmos 1455 4.3 20:28:43 10° NNE 20:29:57 15° NE 20:29:57 15° NE
Cosmos 2315 Rocket 4.0 20:25:45 10° N 20:32:09 81° W 20:34:22 44° S
CZ-2C R/B 4.2 20:29:52 10° NNE 20:33:28 43° ENE 20:33:28 43° ENE
Cosmos 2360 Rocket 2.5 20:29:40 10° NNW 20:35:15 54° ENE 20:36:22 46° ESE
Cosmos 841 Rocket 3.7 20:34:36 10° NNW 20:39:49 63° WSW 20:40:43 54° SSW
Cosmos 2333 Rocket 2.5 20:34:22 10° NNW 20:40:01 54° ENE 20:41:09 47° ESE
Atlas Centaur 2 3.1 20:34:28 10° WSW 20:42:25 48° S 20:43:36 45° SSE
SL-14 R/B 4.4 20:42:16 34° W 20:42:39 35° WNW 20:46:10 10° NNW
SL-16 R/B 2.4 20:37:14 10° NNW 20:42:49 61° WSW 20:43:56 51° SSW
RESURS DK-1 2.6 20:42:01 10° NNW 20:45:34 67° NW 20:45:34 67° NW
Cosmos 1833 4.2 20:48:14 46° SW 20:49:59 77° WNW 20:55:37 10° NNE
Aureole 3 3.8 20:50:55 54° NW 20:50:55 54° NW 20:54:37 10° N
Cosmos 1300 4.0 20:50:14 10° NNW 20:52:53 33° WNW 20:52:53 33° WNW
Cosmos 1703 Rocket 4.3 20:55:40 44° NE 20:55:40 44° NE 20:59:07 10° NNE
Cosmos 1862 Rocket 4.4 20:55:44 41° W 20:56:15 43° W 21:00:27 10° N
Cosmos 1932 4.4 20:54:12 46° SSW 20:56:16 89° ESE 21:02:35 10° NNE
Cosmos 1346 Rocket 3.9 20:58:35 10° NNW 21:01:35 38° WNW 21:01:35 38° WNW
Meteor 1-16 Rocket 4.2 20:58:56 10° N 21:04:53 85° W 21:05:41 69° S
ATLAS 2AS CENTAUR R/B 2.7 20:59:36 10° NNW 21:06:22 70° NE 21:07:52 54° ESE
Cosmos 2333 4.1 21:06:40 10° NNW 21:12:28 78° ENE 21:12:55 73° ESE
ARIANE 5 R/B 3.0 21:17:31 60° NNW 21:17:31 60° NNW 21:21:06 10° NNW
Cosmos 1745 Rocket 3.9 21:20:33 64° ESE 21:21:05 68° E 21:27:24 10° NNE
COSMOS 2455 3.6 21:25:53 38° E 21:25:53 38° E 21:30:29 10° NE
Cosmos 2322 Rocket 2.9 21:22:00 10° NW 21:27:17 41° WSW 21:27:28 41° WSW
SJ 16-02 2.8 21:28:53 29° WNW 21:29:17 29° WNW 21:33:04 10° N
Cosmos 2297 Rocket 3.7 21:31:24 24° E 21:31:24 24° E 21:34:40 10° NE
USA 281 3.1 21:32:45 63° SSW 21:33:37 71° WSW 21:40:12 10° NNW
Nadezhda 1 Rocket 3.8 21:30:18 10° N 21:36:37 79° E 21:37:05 74° SE
Cosmos 1386 Rocket 4.5 21:39:28 64° SW 21:40:18 73° W 21:46:34 10° N
GP-B 4.2 21:41:16 10° NNW 21:44:46 40° WNW 21:44:46 40° WNW
COSMOS 2428 3.2 21:40:19 10° N 21:45:49 48° ENE 21:46:15 47° ENE
GEOS 3 Rocket 4.3 21:46:43 10° NE 21:50:25 43° ENE 21:50:25 43° ENE
Cosmos 2219 Rocket 2.4 21:50:34 10° NNW 21:55:47 61° W 21:55:47 61° W
H-2A R/B 3.8 21:59:30 37° NW 21:59:30 37° NW 22:02:23 10° NNW
Cosmos 371 Rocket 4.0 22:00:27 46° NE 22:00:27 46° NE 22:03:57 10° NNE
Cosmos 2208 Rocket 4.3 21:54:25 10° NNW 21:59:07 62° NE 21:59:07 62° NE
Spot 4 4.5 22:03:33 49° NW 22:03:33 49° NW 22:07:23 10° NNW
Cosmos 158 Rocket 4.3 21:57:34 10° NNW 22:02:24 62° NE 22:02:24 62° NE
CZ-4C R/B 2.5 22:11:44 46° NE 22:11:44 46° NE 22:15:30 10° NE
ALOS 2 3.6 22:11:53 43° NW 22:11:53 43° NW 22:14:57 10° NNW
Cosmos 1503 Rocket 4.4 22:11:39 56° ENE 22:11:39 56° ENE 22:16:05 10° NNE
CENTAUR R/B 3.9 22:13:10 22° E 22:13:10 22° E 22:16:42 10° NE
Cosmos 2360 Rocket 4.0 22:14:52 10° WNW 22:18:06 19° W 22:18:06 19° W
Cosmos 1709 Rocket 4.2 22:20:21 58° WSW 22:20:56 60° W 22:27:14 10° N
Cosmos 2333 Rocket 4.0 22:19:49 10° NW 22:23:08 19° W 22:23:08 19° W
H-2A R/B 3.2 22:20:42 10° NNE 22:23:29 40° NNE 22:23:29 40° NNE
Cosmos 2184 Rocket 4.3 22:30:27 51° ESE 22:30:48 52° E 22:36:57 10° NNE
Cosmos 2098 Rocket 3.9 22:31:56 10° N 22:38:35 86° W 22:38:55 81° SSW
Meteor 1-24 Rocket 4.0 22:39:51 60° W 22:39:54 60° W 22:45:35 10° N
NOSS 0 Rocket 3.8 22:36:56 10° NNW 22:43:13 87° WSW 22:43:20 86° SSW
Cosmos 2154 Rocket 4.2 22:46:40 56° ESE 22:47:04 57° E 22:53:11 10° NNE
Cosmos 1825 4.4 22:51:34 22° NNE 22:51:34 22° NNE 22:52:53 10° N
BlueWalker 3 4.2 22:50:03 21° NNW 22:50:03 21° NNW 22:52:56 10° NNE
NOSS 3-2 (A) 4.5 22:51:17 26° E 22:51:17 26° E 22:54:54 10° NE
Cosmos 1354 Rocket 4.2 22:51:12 69° NNW 22:51:12 69° NNW 22:56:07 10° NNE
Cosmos 332 Rocket 4.3 22:52:48 58° NE 22:52:48 58° NE 22:56:46 10° NNE
Cosmos 2237 Rocket 2.3 22:46:28 10° NNW 22:52:07 66° ENE 22:52:21 65° E
Cosmos 2227 Rocket 2.3 22:53:35 69° E 22:53:35 69° E 22:58:53 10° NNE
ATLAS 2AS CENTAUR R/B 4.3 22:52:02 10° WNW 22:55:16 18° W 22:55:16 18° W
Cosmos 1980 3.6 22:59:06 10° NNW 23:04:39 86° NNW 23:04:39 86° NNW
Nimbus 7 Rocket 4.3 22:59:14 10° NNE 23:05:19 75° ESE 23:05:40 73° SE
COSMOS 2455 4.2 23:08:58 26° W 23:10:52 31° NW 23:16:11 10° N
Cosmos 2219 3.5 23:12:45 54° E 23:12:45 54° E 23:18:05 10° NNE
Cosmos 2297 Rocket 3.0 23:13:10 38° WNW 23:13:50 39° WNW 23:19:06 10° N
Cosmos 2181 Rocket 4.4 23:16:18 10° NNW 23:22:07 45° W 23:22:13 45° W
CZ-2D R/B 3.9 23:20:19 10° NE 23:24:13 20° E 23:25:12 19° ESE
Cosmos 1610 Rocket 4.4 23:24:39 71° S 23:25:27 90° E 23:31:52 10° N
Okean 1 Rocket 3.9 23:23:29 10° NNW 23:26:38 45° NNW 23:26:38 45° NNW
COSMOS 2428 4.4 23:25:26 10° NW 23:28:13 20° W 23:28:13 20° W
SL-4 R/B 3.4 23:27:13 10° NW 23:31:12 38° NNE 23:34:13 17° E
IDEFIX/ARIANE 42P 3.6 23:27:28 10° NNE 23:32:14 34° E 23:32:47 34° ESE
Cosmos 2074 Rocket 4.4 23:33:38 44° W 23:34:15 46° WNW 23:40:12 10° N
Aureole 1 Rocket 4.1 23:40:08 35° NNE 23:40:08 35° NNE 23:42:32 10° NNE
Cosmos 1975 Rocket 3.2 23:49:29 69° NNE 23:49:29 69° NNE 23:53:21 10° N
Cosmos 990 Rocket 4.4 23:48:51 49° WNW 23:49:01 49° WNW 23:54:00 10° N
MOZ.5/SAFIR/RUBIN 5/SL-8 4.0 23:49:47 59° ESE 23:50:13 62° ENE 23:54:49 10° N
Cosmos 2263 Rocket 2.0 23:50:27 72° S 23:51:00 81° ESE 23:56:36 10° NNE
Cosmos 1339 Rocket 4.5 23:44:45 10° N 23:51:11 84° E 23:52:50 53° SSE
Cosmos 1461 4.0 23:54:22 34° E 23:54:22 34° E 23:57:12 10° NE
Helios 1A Rocket 3.8 23:56:30 38° NNW 23:56:30 38° NNW 23:59:00 10° NNW
